[[{"header":{"parameterUnit":"m.s-1","parameterCategory":1,"la1":30.2991,"la2":30.254,"lo1":-89.0895,"lo2":-89.0444,"dy":0.0017,"dx":0.0017,"nx":28,"ny":28,"refTime":"2023-10-02T21:00:00:Z","depth":0,"parameterNumber":2,"parameterNumberName":"U-component_of_WINDS"},"data":[0,0,0,0,0,0,0,0,0,0,0,0,0,0,0,0,0,0,0,0,0,0,0,0,0,0,0,0,0,0,0,0,0,0,0,0,0,0,0,0,0,0,0,0,0,0,0,0,0,0,0,0,0,0,0,0,0,0,-4.4568,-4.4568,0,-4.4629,-4.4629,-4.463,-4.4535,-4.4532,-4.4528,-4.4525,-4.4585,-4.459,-4.4594,0,0,0,0,0,0,0,0,0,0,0,0,0,-4.4368,-4.4373,-4.4568,-4.4569,-4.4569,-4.4628,-4.4629,-4.463,-4.4536,-4.4532,-4.4528,-4.4524,-4.4584,-4.4589,-4.4595,0,0,0,0,0,0,0,0,0,0,0,0,0,-4.4445,-4.4374,-4.4568,-4.4529,-4.4526,-4.4628,-4.4629,-4.463,-4.4536,-4.4531,-4.4527,-4.4522,-4.4582,-4.4589,-4.4596,-4.4737,0,0,-4.4617,-4.462,0,0,0,0,0,0,0,0,-4.444,-4.4452,-4.4534,-4.4532,-4.4529,-4.4569,-4.4581,-4.4666,-4.4538,-4.4533,-4.4525,-4.452,-4.4584,-4.459,-4.4612,-4.474,-4.4742,-4.4618,-4.4622,-4.4625,-4.4627,0,0,0,0,0,0,0,-4.4435,-4.4449,-4.4592,-4.4536,-4.4532,-4.4509,-4.4514,-4.4597,-4.4585,-4.4533,-4.4526,-4.4535,-4.4581,-4.4606,-4.4613,-4.4743,-4.4617,-4.4624,-4.4628,-4.4631,-4.4989,-4.4994,0,0,0,0,0,0,-4.4435,-4.4445,-4.459,-4.4593,-4.4472,-4.4516,-4.4522,-4.4561,-4.4584,-4.4583,-4.4539,-4.453,-4.4596,-4.4605,-4.4615,-4.478,-4.4625,-4.4631,-4.4635,-4.4984,-4.499,-4.4996,0,0,0,0,0,0,-4.4431,-4.4449,-4.4587,-4.4518,-4.4533,-4.4525,-4.457,-4.4565,-4.4589,-4.4588,-4.4586,-4.4566,-4.4593,-4.4605,-4.4707,-4.4781,-4.4634,-4.4641,-4.4977,-4.4986,-4.4993,-4.5113,0,0,0,0,0,0,-4.4426,-4.4448,-4.4502,-4.452,-4.4538,-4.4679,-4.4574,-4.457,-4.4602,-4.4591,-4.4613,-4.4612,-4.459,-4.4697,-4.4714,-4.4788,-4.4646,-4.4971,-4.4981,-4.499,-4.5103,-4.5124,-4.5143,0,0,0,0,0,-4.4419,-4.4533,-4.4505,-4.4523,-4.4605,-4.4684,-4.4694,-4.4667,-4.4608,-4.4662,-4.4661,-4.4611,-4.4771,-4.4709,-4.4727,-4.4804,-4.4966,-4.4978,-4.499,-4.5094,-4.512,-4.5143,0,0,0,0,0,0,-4.4523,-4.4534,-4.4503,-4.4627,-4.4655,-4.4668,-4.4734,-4.4696,-4.4741,-4.4729,-4.4693,-4.4699,-4.4808,-4.4817,-4.4747,-4.4942,-4.4859,-4.4875,-4.4931,-4.4957,-4.4976,-4.497,-4.4652,0,0,0,0,0,-4.456,-4.4624,-4.4631,-4.4739,-4.4755,-4.4743,-4.4776,-4.4753,-4.4781,-4.4792,-4.4799,-4.4827,-4.4883,-4.4921,-4.4973,-4.5105,-4.5107,-4.5167,-4.5187,-4.5204,-4.5217,-4.5286,-4.5312,-4.5035,-4.5035,-4.5035,0,0,-4.4638,-4.4652,-4.4694,-4.476,-4.4779,-4.4845,-4.4753,-4.4827,-4.4875,-4.4803,-4.4899,-4.4906,-4.4935,-4.5052,-4.5104,-4.5063,-4.5295,-4.5219,-4.5232,-4.5236,-4.5301,-4.5327,-4.5351,-4.5043,-4.5042,-4.5041,0,0,-4.4812,-4.4831,-4.4922,-4.4943,-4.4974,-4.4966,-4.4988,-4.5007,-4.5008,-4.5105,-4.5052,-4.5109,-4.5208,-4.523,-4.5254,-4.544,-4.5395,-4.5458,-4.5562,-4.563,-4.5652,-4.5671,-4.5735,-4.5758,-4.5472,-4.5473,-4.5473,0,-4.4904,-4.5002,-4.4973,-4.5051,-4.5081,-4.502,-4.5112,-4.5134,-4.518,-4.5202,-4.5156,-4.5278,-4.5293,-4.5414,-4.546,-4.5483,-4.5505,-4.5453,-4.5651,-4.567,-4.5687,-4.5748,-4.5772,-4.548,-4.5479,-4.5478,-4.5477,0,-4.5112,-4.5181,-4.5251,-4.5298,-4.5336,-4.5421,-4.5405,-4.5447,-4.5422,-4.5418,-4.5517,-4.5534,-4.5588,-4.5616,-4.5592,-4.5734,-4.5707,-4.5657,-4.5572,-4.5721,-4.5777,-4.5801,-4.549,-4.5488,-4.5485,-4.5484,0,0,-4.535,-4.5381,-4.5407,-4.5427,-4.5458,-4.551,-4.5593,-4.5646,-4.5682,-4.5717,-4.5784,-4.587,-4.5823,-4.5851,-4.5829,-4.589,-4.6033,-4.5831,-4.5832,-4.5866,-4.6189,-4.6224,-4.6251,-4.6005,-4.6009,-4.6013,-4.6185,0,-4.5521,-4.5662,-4.564,-4.5777,-4.5839,-4.5784,-4.5855,-4.5881,-4.5881,-4.5934,-4.5933,-4.5993,-4.5929,-4.5945,-4.6003,-4.6003,-4.6097,-4.5991,-4.6065,-4.6068,-4.6055,-4.6281,-4.6318,-4.648,-4.6207,-4.6211,-4.6214,0,-4.5739,-4.5782,-4.5925,-4.5946,-4.5971,-4.6036,-4.6083,-4.6135,-4.6164,-4.6159,-4.6192,-4.616,-4.6241,-4.6158,-4.6269,-4.6197,-4.6227,-4.6232,-4.6238,-4.624,-4.6147,-4.6287,-4.6531,-4.6554,-4.6248,-4.6246,-4.6243,0,-4.5895,-4.5989,-4.6086,-4.6106,-4.6134,-4.618,-4.6193,-4.6218,-4.6251,-4.6293,-4.6315,-4.6366,-4.6393,-4.6433,-4.6415,-4.6357,-4.6528,-4.6444,-4.6525,-4.6526,-4.656,-4.6558,-4.681,-4.6586,-4.6585,-4.6585,-4.6584,0,-4.6086,-4.6175,-4.6157,-4.6216,-4.6314,-4.6289,-4.6386,-4.6393,-4.6415,-4.6475,-4.6431,-4.6488,-4.6462,-4.6517,-4.6504,-4.6597,-4.661,-4.6607,-4.6602,-4.6609,-4.6609,-4.6625,-4.6612,-4.6591,-4.659,-4.6589,-4.6588,0,-4.6275,-4.6267,-4.6368,-4.6387,-4.6394,-4.6465,-4.648,-4.6536,-4.6533,-4.6609,-4.6625,-4.6621,-4.6683,-4.6671,-4.6739,-4.673,-4.6846,-4.6828,-4.6836,-4.6831,-4.6911,-4.6903,-4.7179,-4.7213,-4.697,-4.6973,-4.6975,0,-4.6396,-4.6463,-4.6489,-4.6526,-4.6543,-4.6604,-4.6638,-4.6617,-4.6654,-4.6693,-4.6744,-4.6803,-4.6848,-4.6951,-4.6953,-4.7005,-4.6987,-4.708,-4.6994,-4.6999,-4.6985,-4.6979,-4.6985,-4.7096,-4.7099,-4.7101,-4.7103,0,-4.6611,-4.6604,-4.6655,-4.6707,-4.6749,-4.6788,-4.6822,-4.6855,-4.6836,-4.6881,-4.6945,-4.698,-4.7051,-4.7109,-4.7158,-4.7171,-4.7134,-4.7131,-4.7152,-4.7158,-4.7158,-4.7156,-4.6879,-4.7123,-4.7121,-4.712,-4.7119,-4.7118,-4.6767,-4.6824,-4.6851,-4.691,-4.6935,-4.6968,-4.7021,-4.7026,-4.7079,-4.7135,-4.7119,-4.7191,-4.7219,-4.7281,-4.73,-4.7356,-4.7321,-4.7352,-4.7359,-4.7366,-4.7375,-4.7153,-4.7365,-4.7364,-4.7364,-4.7363,-4.7363,0,-4.6977,-4.6993,-4.7048,-4.7098,-4.7145,-4.7108,-4.7144,-4.7185,-4.7249,-4.7279,-4.7325,-4.7398,-4.7455,-4.7463,-4.7517,-4.756,-4.7544,-4.7575,-4.7569,-4.7573,-4.7404,-4.7379,-4.7587,-4.7586,-4.7586,-4.7586,-4.7586,-4.7586,-4.7092,-4.7185,-4.7182,-4.7287,-4.7302,-4.7372,-4.7396,-4.7427,-4.745,-4.7534,-4.7581,-4.7587,-4.7608,-4.7663,-4.7713,-4.7714,-4.7735,-4.7772,-4.7766,-4.7607,-4.7585,-4.7563,-4.754,-4.7777,-4.7777,-4.7929,-4.793,-4.7931]},{"header":{"parameterUnit":"m.s-1","parameterCategory":1,"la1":30.2991,"la2":30.254,"lo1":-89.0895,"lo2":-89.0444,"dy":0.0017,"dx":0.0017,"nx":28,"ny":28,"refTime":"2023-10-02T21:00:00:Z","depth":0,"parameterNumber":3,"parameterNumberName":"V-component_of_WINDS"},"data":[0,0,0,0,0,0,0,0,0,0,0,0,0,0,0,0,0,0,0,0,0,0,0,0,0,0,0,0,0,0,0,0,0,0,0,0,0,0,0,0,0,0,0,0,0,0,0,0,0,0,0,0,0,0,0,0,0,0,2.2153,2.2152,0,2.215,2.215,2.215,2.219,2.2191,2.2192,2.2193,2.2183,2.2182,2.2181,0,0,0,0,0,0,0,0,0,0,0,0,0,2.2185,2.2185,2.2153,2.2152,2.2152,2.215,2.215,2.215,2.219,2.2191,2.2192,2.2194,2.2184,2.2182,2.2181,0,0,0,0,0,0,0,0,0,0,0,0,0,2.2176,2.2184,2.2153,2.2172,2.2174,2.215,2.215,2.215,2.2189,2.2191,2.2193,2.2194,2.2184,2.2182,2.218,2.2136,0,0,2.2175,2.2174,0,0,0,0,0,0,0,0,2.2176,2.2174,2.2169,2.2171,2.2173,2.2172,2.2158,2.2145,2.2189,2.2183,2.2193,2.2195,2.2178,2.2177,2.2172,2.2135,2.2135,2.2174,2.2173,2.2172,2.2172,0,0,0,0,0,0,0,2.2177,2.2175,2.2151,2.2169,2.2171,2.2179,2.218,2.2156,2.2171,2.2184,2.2187,2.2186,2.2179,2.2174,2.2172,2.2135,2.2174,2.2173,2.2172,2.2171,2.206,2.2058,0,0,0,0,0,0,2.2176,2.2175,2.2151,2.2151,2.2179,2.2177,2.2178,2.2171,2.2172,2.2173,2.2185,2.2188,2.2176,2.2174,2.2172,2.2119,2.2172,2.2171,2.217,2.2062,2.206,2.2058,0,0,0,0,0,0,2.2176,2.2173,2.2152,2.2164,2.2162,2.2175,2.2166,2.217,2.2165,2.2172,2.2175,2.2177,2.2178,2.2175,2.2145,2.2119,2.217,2.2168,2.2064,2.2061,2.2059,2.2013,0,0,0,0,0,0,2.2177,2.2173,2.2158,2.2163,2.2161,2.2126,2.2165,2.2168,2.2162,2.2166,2.2166,2.2167,2.2179,2.2148,2.2143,2.2118,2.2167,2.2066,2.2063,2.206,2.2017,2.2009,2.2002,0,0,0,0,0,2.2178,2.2143,2.2157,2.2153,2.2142,2.2125,2.2123,2.2139,2.216,2.2143,2.2149,2.2167,2.2123,2.2144,2.2139,2.2113,2.2068,2.2064,2.206,2.202,2.2011,2.2003,0,0,0,0,0,0,2.2131,2.2144,2.2159,2.2126,2.2124,2.2131,2.2111,2.2128,2.2119,2.2123,2.2141,2.214,2.2107,2.2107,2.213,2.2069,2.2099,2.2094,2.207,2.2061,2.2054,2.2054,2.2165,0,0,0,0,0,2.2118,2.2104,2.2116,2.2085,2.2084,2.2097,2.209,2.2103,2.2101,2.21,2.2102,2.2098,2.2083,2.2072,2.2059,2.2018,2.2017,2.1997,2.199,2.1984,2.1979,2.1956,2.1947,2.2045,2.2045,2.2045,0,0,2.2088,2.2093,2.2083,2.2076,2.2076,2.2059,2.2096,2.2077,2.2065,2.2096,2.2068,2.207,2.2066,2.203,2.2014,2.2029,2.1952,2.1979,2.1974,2.1972,2.1951,2.1941,2.1933,2.2042,2.2042,2.2043,0,0,2.2026,2.2029,2.2004,2.2004,2.2005,2.2015,2.2009,2.2014,2.2017,2.199,2.2013,2.1998,2.1972,2.1968,2.1963,2.1901,2.1917,2.1896,2.1857,2.1835,2.1827,2.182,2.1797,2.1788,2.1891,2.1891,2.1891,0,2.1988,2.1967,2.1988,2.1968,2.1963,2.1994,2.1967,2.1966,2.1961,2.1956,2.1974,2.1943,2.1942,2.1905,2.189,2.1885,2.1877,2.1895,2.1827,2.182,2.1814,2.1792,2.1783,2.1888,2.1888,2.1888,2.1889,0,2.192,2.1904,2.1884,2.1881,2.1874,2.1851,2.1867,2.1857,2.1871,2.1878,2.185,2.1851,2.1838,2.1831,2.1843,2.1795,2.1805,2.1824,2.1854,2.1802,2.1781,2.1773,2.1884,2.1885,2.1886,2.1886,0,0,2.1826,2.1837,2.1829,2.1828,2.1832,2.1819,2.1797,2.1788,2.1778,2.1774,2.1754,2.1733,2.1752,2.1746,2.1758,2.1738,2.1688,2.176,2.1761,2.1745,2.1634,2.1617,2.1607,2.17,2.1698,2.1697,2.1633,0,2.1764,2.1729,2.1748,2.1709,2.1694,2.1724,2.1704,2.1703,2.171,2.1697,2.1703,2.1687,2.1714,2.171,2.1693,2.1698,2.1665,2.1703,2.1679,2.1678,2.1677,2.1597,2.1579,2.1519,2.1626,2.1624,2.1623,0,2.1687,2.1683,2.1643,2.165,2.1645,2.1627,2.162,2.1608,2.1607,2.1613,2.1607,2.1624,2.1601,2.1632,2.1599,2.1624,2.1616,2.1617,2.1615,2.1611,2.1646,2.1589,2.1501,2.1491,2.1611,2.1612,2.1613,0,2.1621,2.1605,2.1579,2.1578,2.1586,2.1572,2.1574,2.1576,2.1569,2.1562,2.1557,2.1547,2.154,2.1531,2.1544,2.1566,2.1508,2.1541,2.151,2.151,2.1495,2.1495,2.1402,2.1493,2.1493,2.1493,2.1493,0,2.1549,2.1523,2.155,2.1533,2.1505,2.1527,2.1497,2.1502,2.1503,2.1487,2.1512,2.1495,2.1515,2.15,2.151,2.148,2.1477,2.1479,2.1482,2.1476,2.1476,2.1469,2.1473,2.1491,2.1491,2.1492,2.1492,0,2.147,2.1486,2.146,2.1471,2.1473,2.1451,2.1459,2.1443,2.1452,2.1432,2.1428,2.1441,2.1425,2.1438,2.1421,2.1428,2.1388,2.1397,2.1389,2.1391,2.1359,2.1361,2.1256,2.1243,2.1344,2.1343,2.1342,0,2.1422,2.1403,2.1412,2.1404,2.1406,2.1393,2.1386,2.1407,2.1399,2.1398,2.1381,2.1368,2.1358,2.1331,2.1337,2.1324,2.1332,2.1297,2.133,2.1325,2.133,2.133,2.1327,2.1289,2.1288,2.1287,2.1286,0,2.1335,2.1344,2.1336,2.133,2.1322,2.1318,2.1315,2.1307,2.1328,2.1317,2.1303,2.1295,2.128,2.1265,2.1255,2.1255,2.1273,2.1276,2.1268,2.1261,2.1256,2.1256,2.1368,2.1278,2.1278,2.1279,2.128,2.128,2.1268,2.1253,2.1257,2.1246,2.1247,2.1245,2.1231,2.1239,2.1228,2.1218,2.1231,2.1212,2.1211,2.12,2.1198,2.1182,2.1197,2.1185,2.1182,2.1178,2.1173,2.1261,2.1181,2.1181,2.1181,2.1181,2.1182,0,2.1181,2.1186,2.1176,2.1173,2.1164,2.1186,2.1184,2.1174,2.1158,2.1157,2.1148,2.113,2.1117,2.1123,2.1111,2.1097,2.1105,2.1093,2.1093,2.1092,2.1162,2.1169,2.1087,2.1087,2.1087,2.1087,2.1087,2.1087,2.1135,2.111,2.112,2.1094,2.1099,2.1083,2.108,2.1077,2.1076,2.1056,2.1046,2.1052,2.1053,2.1041,2.1029,2.1031,2.1024,2.1009,2.1013,2.1078,2.1087,2.1096,2.1103,2.1008,2.1008,2.0945,2.0944,2.0944]}]]